Total_Precipitation_Accumulation
0.00 0.00 0.01 0.00 0.00 0.00 0.00 0.00 0.00 0.00 0.00 0.00 0.00 0.00 0.00 0.00 0.00 0.00 0.00 0.00 0.00 0.00 0.00 0.00 0.00 0.00 0.00 0.00 0.00 0.00 0.00 0.00 0.00 0.00 0.00 0.00 0.00 0.00 0.00 0.00 0.00 0.00 0.00
0.00 0.00 0.01 0.00 0.00 0.00 0.00 0.00 0.00 0.00 0.00 0.00 0.00 0.00 0.00 0.00 0.00 0.00 0.00 0.00 0.00 0.00 0.00 0.00 0.00 0.00 0.00 0.00 0.00 0.00 0.00 0.00 0.00 0.00 0.00 0.00 0.00 0.00 0.00 0.00 0.00 0.00 0.00
0.00 0.00 0.00 0.00 0.00 0.00 0.00 0.00 0.00 0.00 0.00 0.00 0.00 0.00 0.00 0.00 0.00 0.00 0.00 0.00 0.00 0.00 0.00 0.00 0.00 0.00 0.00 0.00 0.00 0.00 0.00 0.00 0.00 0.00 0.00 0.00 0.00 0.00 0.00 0.00 0.00 0.00 0.00
0.00 0.00 0.00 0.00 0.00 0.00 0.00 0.00 0.00 0.00 0.00 0.00 0.00 0.00 0.00 0.00 0.00 0.00 0.00 0.00 0.00 0.00 0.00 0.00 0.00 0.00 0.00 0.00 0.00 0.00 0.00 0.00 0.00 0.00 0.00 0.00 0.00 0.00 0.00 0.00 0.00 0.00 0.00
0.00 0.00 0.00 0.00 0.00 0.00 0.00 0.00 0.00 0.00 0.00 0.00 0.00 0.00 0.00 0.00 0.00 0.00 0.00 0.00 0.00 0.00 0.00 0.00 0.00 0.00 0.00 0.00 0.00 0.00 0.00 0.00 0.00 0.00 0.00 0.00 0.00 0.00 0.00 0.00 0.00 0.00 0.00
0.00 0.00 0.00 0.00 0.00 0.00 0.00 0.00 0.00 0.00 0.00 0.00 0.00 0.00 0.00 0.00 0.00 0.00 0.00 0.00 0.00 0.00 0.00 0.00 0.00 0.00 0.00 0.00 0.00 0.00 0.00 0.00 0.00 0.01 0.01 0.01 0.00 0.00 0.01 0.01 0.01 0.02 0.01
0.00 0.00 0.00 0.00 0.00 0.00 0.00 0.00 0.00 0.00 0.00 0.00 0.00 0.00 0.00 0.00 0.00 0.00 0.00 0.00 0.00 0.00 0.00 0.00 0.00 0.00 0.00 0.00 0.00 0.00 0.00 0.00 0.00 0.01 0.01 0.00 0.00 0.00 0.02 0.02 0.01 0.02 0.01
0.00 0.00 0.00 0.00 0.00 0.00 0.00 0.00 0.00 0.00 0.00 0.00 0.00 0.00 0.00 0.00 0.01 0.01 0.02 0.01 0.01 0.00 0.00 0.00 0.00 0.00 0.00 0.00 0.00 0.00 0.00 0.00 0.00 0.00 0.00 0.00 0.00 0.02 0.07 0.08 0.05 0.04 0.03
0.00 0.00 0.00 0.00 0.00 0.00 0.00 0.00 0.00 0.00 0.00 0.00 0.00 0.00 0.00 0.00 0.02 0.03 0.04 0.04 0.03 0.02 0.01 0.00 0.00 0.00 0.00 0.01 0.01 0.01 0.01 0.01 0.00 0.00 0.00 0.00 0.01 0.06 0.14 0.16 0.11 0.11 0.14
0.00 0.00 0.00 0.00 0.00 0.00 0.00 0.00 0.00 0.00 0.00 0.00 0.00 0.00 0.00 0.00 0.02 0.03 0.03 0.04 0.06 0.06 0.04 0.02 0.01 0.00 0.00 0.00 0.00 0.00 0.00 0.00 0.00 0.01 0.00 0.01 0.02 0.05 0.11 0.15 0.20 0.23 0.21
0.00 0.00 0.00 0.00 0.00 0.00 0.00 0.00 0.00 0.00 0.00 0.00 0.00 0.00 0.01 0.00 0.00 0.01 0.01 0.03 0.07 0.08 0.07 0.04 0.01 0.00 0.01 0.00 0.00 0.00 0.00 0.00 0.00 0.00 0.00 0.01 0.01 0.02 0.10 0.20 0.25 0.27 0.22
0.01 0.01 0.00 0.00 0.00 0.00 0.00 0.00 0.00 0.00 0.00 0.00 0.00 0.00 0.00 0.00 0.01 0.03 0.06 0.11 0.11 0.12 0.10 0.08 0.05 0.02 0.02 0.03 0.04 0.03 0.02 0.04 0.03 0.02 0.02 0.06 0.05 0.04 0.13 0.23 0.21 0.21 0.17
0.00 0.00 0.00 0.00 0.00 0.00 0.00 0.00 0.00 0.00 0.00 0.00 0.00 0.00 0.00 0.01 0.02 0.06 0.05 0.08 0.09 0.09 0.06 0.10 0.10 0.06 0.05 0.04 0.04 0.02 0.03 0.05 0.04 0.01 0.01 0.07 0.10 0.13 0.21 0.21 0.17 0.14 0.11
0.00 0.00 0.00 0.00 0.00 0.00 0.00 0.00 0.00 0.00 0.00 0.00 0.00 0.00 0.01 0.01 0.01 0.02 0.03 0.04 0.04 0.03 0.02 0.02 0.03 0.04 0.05 0.02 0.01 0.00 0.01 0.01 0.01 0.01 0.02 0.11 0.13 0.11 0.20 0.24 0.15 0.15 0.13
0.00 0.00 0.00 0.00 0.00 0.00 0.00 0.00 0.00 0.00 0.00 0.00 0.01 0.01 0.01 0.02 0.01 0.01 0.01 0.01 0.01 0.01 0.01 0.01 0.01 0.02 0.05 0.04 0.01 0.01 0.02 0.02 0.01 0.02 0.03 0.11 0.11 0.06 0.15 0.16 0.11 0.13 0.13
0.00 0.00 0.00 0.00 0.00 0.00 0.00 0.00 0.00 0.00 0.00 0.00 0.01 0.01 0.02 0.02 0.01 0.00 0.00 0.00 0.00 0.01 0.00 0.01 0.02 0.02 0.04 0.06 0.05 0.03 0.03 0.01 0.02 0.02 0.02 0.04 0.07 0.07 0.08 0.07 0.07 0.08 0.10
0.00 0.00 0.00 0.00 0.00 0.00 0.00 0.00 0.00 0.00 0.00 0.00 0.00 0.01 0.01 0.01 0.00 0.00 0.00 0.00 0.00 0.01 0.00 0.00 0.02 0.03 0.05 0.06 0.03 0.02 0.01 0.00 0.01 0.02 0.01 0.02 0.03 0.07 0.08 0.05 0.04 0.05 0.07
0.00 0.00 0.00 0.00 0.00 0.00 0.00 0.00 0.00 0.00 0.00 0.00 0.00 0.01 0.01 0.01 0.01 0.01 0.01 0.01 0.01 0.01 0.00 0.01 0.02 0.05 0.14 0.15 0.05 0.01 0.01 0.01 0.00 0.01 0.01 0.02 0.02 0.03 0.05 0.05 0.04 0.04 0.06
0.00 0.00 0.00 0.00 0.00 0.00 0.00 0.00 0.00 0.00 0.00 0.00 0.01 0.02 0.02 0.02 0.03 0.03 0.02 0.03 0.02 0.01 0.00 0.01 0.01 0.04 0.09 0.15 0.10 0.04 0.05 0.05 0.02 0.01 0.01 0.01 0.01 0.02 0.02 0.03 0.03 0.04 0.06
0.01 0.00 0.00 0.01 0.01 0.02 0.04 0.04 0.03 0.01 0.00 0.00 0.02 0.03 0.03 0.04 0.06 0.04 0.02 0.02 0.02 0.01 0.01 0.03 0.03 0.05 0.05 0.09 0.13 0.08 0.07 0.04 0.02 0.02 0.04 0.03 0.01 0.00 0.00 0.00 0.01 0.02 0.03
0.01 0.01 0.02 0.04 0.09 0.11 0.14 0.17 0.15 0.08 0.05 0.05 0.08 0.11 0.10 0.11 0.12 0.08 0.04 0.03 0.02 0.01 0.01 0.04 0.07 0.04 0.04 0.11 0.12 0.07 0.01 0.01 0.01 0.00 0.02 0.02 0.01 0.00 0.01 0.01 0.01 0.01 0.00
0.03 0.05 0.06 0.10 0.14 0.16 0.20 0.22 0.22 0.22 0.19 0.16 0.15 0.15 0.13 0.10 0.07 0.04 0.02 0.01 0.01 0.01 0.01 0.02 0.03 0.02 0.01 0.06 0.09 0.08 0.02 0.00 0.00 0.00 0.00 0.00 0.00 0.00 0.01 0.01 0.01 0.01 0.00
0.07 0.08 0.16 0.20 0.22 0.30 0.37 0.40 0.38 0.37 0.32 0.25 0.18 0.16 0.13 0.10 0.07 0.03 0.01 0.00 0.00 0.00 0.01 0.01 0.03 0.03 0.03 0.04 0.11 0.14 0.06 0.02 0.01 0.01 0.00 0.01 0.01 0.01 0.01 0.01 0.01 0.00 0.00
0.13 0.17 0.30 0.34 0.38 0.52 0.67 0.66 0.57 0.48 0.43 0.39 0.33 0.23 0.16 0.09 0.04 0.01 0.00 0.00 0.00 0.00 0.01 0.02 0.05 0.08 0.08 0.04 0.08 0.12 0.11 0.05 0.03 0.02 0.02 0.02 0.01 0.00 0.00 0.00 0.00 0.00 0.00
0.28 0.35 0.54 0.64 0.77 0.94 1.05 1.04 0.92 0.76 0.58 0.42 0.29 0.16 0.07 0.03 0.01 0.00 0.00 0.00 0.00 0.00 0.01 0.02 0.03 0.08 0.11 0.07 0.06 0.08 0.13 0.12 0.09 0.05 0.03 0.03 0.02 0.00 0.00 0.00 0.00 0.00 0.00
0.76 0.73 0.79 0.86 0.99 1.11 1.14 1.06 0.82 0.55 0.35 0.19 0.10 0.05 0.02 0.00 0.00 0.00 0.00 0.00 0.00 0.00 0.00 0.01 0.02 0.04 0.05 0.06 0.08 0.08 0.10 0.12 0.12 0.11 0.07 0.05 0.03 0.01 0.00 0.00 0.00 0.00 0.00